{"data":{"norad_id":38734,"epoch":"2026-05-25T03:58:09.918048Z","epoch_age_seconds":53953,"freshness":"FRESH","line1":"1 38734U 12041B   26145.16539257  .00000005  00000+0 -38520-4 0  9996","line2":"2 38734  82.4740  79.2298 0017619 109.0657 251.2334 12.44901889627800","mean_motion":12.44901889,"eccentricity":0.0017619,"inclination_deg":82.474,"raan_deg":79.2298,"arg_perigee_deg":109.0657,"mean_anomaly_deg":251.2334,"bstar":-3.852e-5,"rev_number":62780,"period_min":115.67176600212,"perigee_km":1472.0360841581,"apogee_km":1499.7473485487,"semimajor_km":7864.0287163534,"source":"CELESTRAK","updated_at":"2026-05-25T13:37:55.304343Z"}}